| time (UTC) | temp C | wind direction | speed KPH | gust KPH | rain 1hr cm | rain 24hr cm | rain mn cm | humidity % | barometer mb |
| 20260506214504 | 12 | 0 | 3.2 | 0.0 | 0.00 | 0.00 | 0.00 | 87 | 1014.0 |
| 20260506213004 | 12 | 130 | 4.8 | 0.0 | 0.00 | 0.00 | 0.00 | 87 | 1014.0 |
| 20260506211504 | 12 | 130 | 4.8 | 0.0 | 0.00 | 0.00 | 0.00 | 87 | 1014.0 |
| 20260506204504 | 12 | 0 | 3.2 | 0.0 | 0.00 | 0.00 | 0.00 | 87 | 1014.0 |
| 20260506200004 | 13 | 0 | 1.6 | 0.0 | 0.00 | 0.00 | 0.00 | 87 | 1014.0 |
| 20260506194504 | 13 | 0 | 1.6 | 0.0 | 0.00 | 0.00 | 0.00 | 87 | 1014.0 |
| 20260506184504 | 13 | 310 | 8.0 | 0.0 | 0.00 | 0.00 | 0.00 | 82 | 1014.0 |
| 20260506183004 | 13 | 300 | 8.0 | 0.0 | 0.00 | 0.00 | 0.00 | 82 | 1014.0 |
| 20260506174504 | 15 | 310 | 11.3 | 0.0 | 0.00 | 0.00 | 0.00 | 76 | 1014.0 |
| 20260506173004 | 15 | 310 | 11.3 | 0.0 | 0.00 | 0.00 | 0.00 | 76 | 1014.0 |
| 20260506171504 | 15 | 310 | 11.3 | 0.0 | 0.00 | 0.00 | 0.00 | 76 | 1014.0 |
| 20260506163005 | 16 | 320 | 11.3 | 0.0 | 0.00 | 0.00 | 0.00 | 77 | 1014.0 |
| 20260506154504 | 15 | 310 | 11.3 | 0.0 | 0.00 | 0.00 | 0.00 | 76 | 1014.0 |
| 20260506151504 | 15 | 320 | 12.9 | 0.0 | 0.00 | 0.00 | 0.00 | 76 | 1014.0 |
| 20260506150004 | 15 | 310 | 12.9 | 0.0 | 0.00 | 0.00 | 0.00 | 76 | 1015.0 |
| 20260506140004 | 15 | 330 | 1.6 | 0.0 | 0.00 | 0.00 | 0.00 | 76 | 1015.0 |
| 20260506134504 | 15 | 330 | 1.6 | 0.0 | 0.00 | 0.00 | 0.00 | 76 | 1015.0 |
| 20260506133004 | 15 | 320 | 14.5 | 0.0 | 0.00 | 0.00 | 0.00 | 76 | 1015.0 |
| 20260506130005 | 16 | 290 | 19.3 | 0.0 | 0.00 | 0.00 | 0.00 | 72 | 1015.0 |
| 20260506124504 | 16 | 290 | 19.3 | 0.0 | 0.00 | 0.00 | 0.00 | 72 | 1015.0 |
| 20260506123004 | 15 | 300 | 1.6 | 0.0 | 0.00 | 0.00 | 0.00 | 72 | 1015.0 |
| 20260506121505 | 15 | 300 | 1.6 | 0.0 | 0.00 | 0.00 | 0.00 | 72 | 1015.0 |
| 20260506114503 | 17 | 300 | 14.5 | 0.0 | 0.00 | 0.00 | 0.00 | 77 | 1015.0 |
| 20260506111503 | 15 | 280 | 20.9 | 0.0 | 0.00 | 0.00 | 0.00 | 76 | 1015.0 |
| 20260506110005 | 16 | 290 | 14.5 | 0.0 | 0.00 | 0.00 | 0.00 | 72 | 1015.0 |
| 20260506104504 | 16 | 290 | 14.5 | 0.0 | 0.00 | 0.00 | 0.00 | 72 | 1015.0 |
| 20260506103005 | 13 | 280 | 9.7 | 0.0 | 0.00 | 0.00 | 0.00 | 76 | 1015.0 |
| 20260506101504 | 13 | 280 | 9.7 | 0.0 | 0.00 | 0.00 | 0.00 | 76 | 1015.0 |
| 20260506100004 | 13 | 250 | 11.3 | 0.0 | 0.00 | 0.00 | 0.00 | 76 | 1015.0 |
| 20260506094504 | 13 | 250 | 11.3 | 0.0 | 0.00 | 0.00 | 0.00 | 76 | 1015.0 |
| 20260506090004 | 12 | 230 | 9.7 | 0.0 | 0.00 | 0.00 | 0.00 | 81 | 1015.0 |
| 20260506084504 | 12 | 230 | 9.7 | 0.0 | 0.00 | 0.00 | 0.00 | 81 | 1015.0 |
| 20260506083004 | 11 | 230 | 11.3 | 0.0 | 0.00 | 0.00 | 0.00 | 87 | 1015.0 |
| 20260506073004 | 11 | 230 | 12.9 | 0.0 | 0.00 | 0.00 | 0.00 | 87 | 1015.0 |
| 20260506061504 | 10 | 230 | 12.9 | 0.0 | 0.00 | 0.00 | 0.00 | 87 | 1014.0 |
| 20260506044505 | 10 | 230 | 12.9 | 0.0 | 0.00 | 0.00 | 0.00 | 93 | 1015.0 |
| 20260506043004 | 11 | 230 | 12.9 | 0.0 | 0.00 | 0.00 | 0.00 | 87 | 1015.0 |
| 20260506040004 | 10 | 230 | 14.5 | 0.0 | 0.00 | 0.00 | 0.00 | 93 | 1015.0 |
| 20260506034504 | 10 | 230 | 14.5 | 0.0 | 0.00 | 0.00 | 0.00 | 93 | 1015.0 |
| 20260506033005 | 10 | 230 | 12.9 | 0.0 | 0.00 | 0.00 | 0.00 | 93 | 1015.0 |
| 20260506030005 | 10 | 230 | 14.5 | 0.0 | 0.00 | 0.00 | 0.00 | 93 | 1015.0 |
| 20260506023005 | 10 | 240 | 14.5 | 0.0 | 0.00 | 0.00 | 0.00 | 93 | 1015.0 |
| 20260506020005 | 11 | 230 | 12.9 | 0.0 | 0.00 | 0.00 | 0.00 | 87 | 1015.0 |
| 20260506014503 | 11 | 230 | 12.9 | 0.0 | 0.00 | 0.00 | 0.00 | 87 | 1015.0 |
| 20260506011504 | 11 | 230 | 12.9 | 0.0 | 0.00 | 0.00 | 0.00 | 87 | 1016.0 |
| 20260506010004 | 11 | 230 | 11.3 | 0.0 | 0.00 | 0.00 | 0.00 | 87 | 1016.0 |
| 20260506003004 | 11 | 230 | 12.9 | 0.0 | 0.00 | 0.00 | 0.00 | 87 | 1016.0 |
| 20260506000005 | 11 | 220 | 11.3 | 0.0 | 0.00 | 0.00 | 0.00 | 87 | 1016.0 |
| 20260505234504 | 11 | 220 | 11.3 | 0.0 | 0.00 | 0.00 | 0.00 | 87 | 1016.0 |
| 20260505233005 | 11 | 0 | 11.3 | 0.0 | 0.00 | 0.00 | 0.00 | 93 | 1016.0 |
| 20260505231504 | 11 | 0 | 11.3 | 0.0 | 0.00 | 0.00 | 0.00 | 93 | 1016.0 |
| 20260505224504 | 12 | 240 | 12.9 | 0.0 | 0.00 | 0.00 | 0.00 | 87 | 1016.0 |
| 20260505221504 | 12 | 250 | 9.7 | 0.0 | 0.00 | 0.00 | 0.00 | 93 | 1016.0 |